TimeMST,TemperatureF,Dew PointF,Humidity,Sea Level PressureIn,VisibilityMPH,Wind Direction,Wind SpeedMPH,Gust SpeedMPH,PrecipitationIn,Events,Conditions,WindDirDegrees,DateUTC
12:53 AM,-17.0,-22.0,78,30.69,4.0,North,5.8,-,0.00,Snow,Light Snow,10,2013-12-07 07:53:00
1:53 AM,-17.0,-22.0,78,30.67,3.0,NNE,3.5,-,0.00,Snow,Light Snow,20,2013-12-07 08:53:00
2:53 AM,-17.0,-22.0,78,30.67,5.0,NNE,3.5,-,0.00,Snow,Light Snow,20,2013-12-07 09:53:00
3:32 AM,-20.0,-23.1,86,30.31,10.0,North,3.5,-,0.00,,Scattered Clouds,350,2013-12-07 10:32:00
3:53 AM,-20.9,-25.1,81,30.66,6.0,North,4.6,-,0.00,,Scattered Clouds,360,2013-12-07 10:53:00
4:53 AM,-18.9,-24.0,78,30.63,10.0,NNE,4.6,-,N/A,,Clear,20,2013-12-07 11:53:00
5:53 AM,-20.9,-24.0,86,30.63,10.0,NNE,3.5,-,N/A,,Partly Cloudy,20,2013-12-07 12:53:00
6:53 AM,-20.0,-24.0,82,30.62,10.0,Calm,Calm,-,N/A,,Partly Cloudy,0,2013-12-07 13:53:00
7:53 AM,-20.9,-25.1,81,30.61,10.0,North,3.5,-,N/A,,Scattered Clouds,360,2013-12-07 14:53:00
8:53 AM,-20.9,-25.1,81,30.62,10.0,North,4.6,-,N/A,,Mostly Cloudy,10,2013-12-07 15:53:00
9:53 AM,-20.0,-24.0,82,30.61,10.0,NNE,6.9,-,N/A,,Mostly Cloudy,30,2013-12-07 16:53:00
10:53 AM,-18.9,-23.1,81,30.59,10.0,NNE,5.8,-,N/A,,Mostly Cloudy,30,2013-12-07 17:53:00
11:53 AM,-16.1,-20.9,79,30.54,10.0,North,5.8,-,N/A,,Mostly Cloudy,350,2013-12-07 18:53:00
12:53 PM,-14.1,-20.0,75,30.49,10.0,North,4.6,-,N/A,,Mostly Cloudy,10,2013-12-07 19:53:00
1:53 PM,-13.0,-20.0,71,30.46,8.0,NNE,4.6,-,0.00,,Mostly Cloudy,30,2013-12-07 20:53:00
2:28 PM,-13.0,-20.0,71,30.10,10.0,North,4.6,-,N/A,Fog,Patches of Fog,360,2013-12-07 21:28:00
2:53 PM,-13.0,-20.0,71,30.44,10.0,NNE,4.6,-,N/A,Fog,Patches of Fog,20,2013-12-07 21:53:00
3:53 PM,-17.0,-22.0,78,30.45,10.0,WNW,5.8,-,N/A,Fog,Patches of Fog,300,2013-12-07 22:53:00
4:53 PM,-18.9,-24.0,78,30.43,10.0,West,6.9,-,N/A,Fog,Patches of Fog,280,2013-12-07 23:53:00
5:53 PM,-17.0,-20.9,82,30.43,10.0,WSW,9.2,-,N/A,,Clear,240,2013-12-08 00:53:00
6:53 PM,-17.0,-22.0,78,30.41,10.0,WSW,4.6,-,N/A,,Clear,240,2013-12-08 01:53:00
7:53 PM,-17.0,-22.0,78,30.41,10.0,SW,8.1,-,N/A,,Clear,220,2013-12-08 02:53:00
8:53 PM,-18.0,-23.1,78,30.39,10.0,WSW,10.4,-,N/A,,Clear,240,2013-12-08 03:53:00
9:53 PM,-18.0,-22.0,82,30.37,10.0,SW,10.4,-,N/A,,Clear,220,2013-12-08 04:53:00
10:53 PM,-17.0,-23.1,74,30.34,10.0,SW,16.1,-,N/A,,Clear,230,2013-12-08 05:53:00
11:53 PM,-17.0,-23.1,74,30.30,10.0,WSW,19.6,-,N/A,,Clear,240,2013-12-08 06:53:00